Location: Middle Street
(51.7167°N, 0.0333°E)
Time: 21:58:51
(UTC+00:00)

ARGOS - Pass Details

Date: 20 January 2021
Orbit: 821 x 834 km, 98.4° (Epoch: 01 March)

Event Time Altitude Azimuth Distance (km) Brightness Sun altitude
Rises 17:32:23 0° 125° (SE) 3,349 6.0 -9.8°
Reaches altitude 10° 17:35:04 10° 113° (ESE) 2,422 5.2 -10.2°
Maximum altitude 17:39:25 26° 58° (ENE) 1,573 4.1 -10.8°
Drops below altitude 10° 17:43:48 10° 4° (N) 2,439 5.4 -11.5°
Sets 17:46:29 0° 352° (N) 3,379 6.2 -11.9°
